Location: ???????
(55.4362°N, 38.1183°E)
Time: 17:27:18
(UTC+00:00)

Cosmos 2278 Rocket - Pass Details

Date: 24 October 2021
Orbit: 841 x 845 km, 71.0° (Epoch: 28 November)

Event Time Altitude Azimuth Distance (km) Brightness Sun altitude
Rises 19:29:53 0° 317° (NW) 3,417 6.2 -42.3°
Reaches altitude 10° 19:33:26 10° 295° (WNW) 2,475 5.1 -42.6°
Enters shadow 19:34:19 12° 287° (WNW) 2,318 4.9 -42.6°
